| time (UTC) | temp F | wind direction | speed MPH | gust MPH | rain 1hr in | rain 24hr in | rain mn in | humidity % | barometer mb |
| 20260904152003 | 67 | 62 | 4.0 | 14.0 | 0.00 | 0.00 | 0.00 | 84 | 1021.6 |
| 20260904151003 | 66 | 77 | 3.0 | 8.0 | 0.00 | 0.00 | 0.00 | 86 | 1021.5 |
| 20260904150003 | 67 | 36 | 1.0 | 8.0 | 0.00 | 0.00 | 0.00 | 87 | 1021.6 |
| 20260904145003 | 66 | 78 | 2.0 | 6.0 | 0.00 | 0.00 | 0.00 | 88 | 1021.5 |
| 20260904144008 | 66 | 121 | 3.0 | 7.0 | 0.00 | 0.00 | 0.00 | 89 | 1021.5 |
| 20260904143004 | 65 | 70 | 2.0 | 9.0 | 0.00 | 0.00 | 0.00 | 90 | 1021.4 |
| 20260904142003 | 65 | 63 | 3.0 | 7.0 | 0.00 | 0.00 | 0.00 | 91 | 1021.4 |
| 20260904141003 | 65 | 40 | 5.0 | 7.0 | 0.00 | 0.00 | 0.00 | 91 | 1021.3 |
| 20260904140003 | 65 | 52 | 1.0 | 6.0 | 0.00 | 0.00 | 0.00 | 91 | 1021.2 |
| 20260904133004 | 65 | 6 | 2.0 | 7.0 | 0.00 | 0.00 | 0.00 | 91 | 1021.1 |
| 20260904132002 | 65 | 24 | 5.0 | 7.0 | 0.00 | 0.00 | 0.00 | 91 | 1021.1 |
| 20260904131006 | 65 | 2 | 1.0 | 5.0 | 0.00 | 0.00 | 0.00 | 90 | 1020.9 |
| 20260904130004 | 64 | 348 | 2.0 | 3.0 | 0.00 | 0.00 | 0.00 | 90 | 1020.8 |
| 20260904125004 | 65 | 5 | 1.0 | 3.0 | 0.00 | 0.00 | 0.00 | 90 | 1020.6 |
| 20260904124005 | 64 | 8 | 1.0 | 3.0 | 0.00 | 0.00 | 0.00 | 91 | 1020.8 |
| 20260904123005 | 64 | 344 | 2.0 | 5.0 | 0.00 | 0.00 | 0.00 | 91 | 1020.9 |
| 20260904122004 | 64 | 111 | 2.0 | 5.0 | 0.00 | 0.00 | 0.00 | 91 | 1020.6 |
| 20260904120004 | 64 | 17 | 3.0 | 5.0 | 0.00 | 0.00 | 0.00 | 92 | 1020.6 |
| 20260904115003 | 64 | 41 | 2.0 | 5.0 | 0.00 | 0.00 | 0.00 | 92 | 1020.5 |
| 20260904114009 | 64 | 28 | 1.0 | 5.0 | 0.00 | 0.00 | 0.00 | 92 | 1020.5 |
| 20260904111003 | 65 | 13 | 1.0 | 5.0 | 0.00 | 0.00 | 0.00 | 92 | 1020.1 |
| 20260904110003 | 65 | 98 | 2.0 | 7.0 | 0.00 | 0.00 | 0.00 | 93 | 1020.1 |
| 20260904105003 | 65 | 69 | 1.0 | 5.0 | 0.00 | 0.00 | 0.00 | 93 | 1020.2 |
| 20260904103008 | 65 | 51 | 2.0 | 5.0 | 0.00 | 0.00 | 0.00 | 93 | 1020.2 |
| 20260904100003 | 65 | 100 | 1.0 | 6.0 | 0.00 | 0.00 | 0.00 | 93 | 1020.1 |
| 20260904095002 | 65 | 113 | 2.0 | 7.0 | 0.00 | 0.00 | 0.00 | 93 | 1020.2 |
| 20260904094004 | 65 | 11 | 2.0 | 5.0 | 0.00 | 0.00 | 0.00 | 93 | 1020.2 |
| 20260904093002 | 65 | 90 | 2.0 | 6.0 | 0.00 | 0.00 | 0.00 | 93 | 1020.3 |
| 20260904092003 | 65 | 31 | 1.0 | 5.0 | 0.00 | 0.00 | 0.00 | 93 | 1020.2 |
| 20260904091002 | 65 | 128 | 2.0 | 5.0 | 0.00 | 0.00 | 0.00 | 93 | 1020.4 |
| 20260904090003 | 65 | 52 | 3.0 | 5.0 | 0.00 | 0.00 | 0.00 | 93 | 1020.3 |
| 20260904085003 | 65 | 36 | 2.0 | 5.0 | 0.00 | 0.00 | 0.00 | 93 | 1020.3 |
| 20260904084003 | 64 | 32 | 1.0 | 5.0 | 0.00 | 0.00 | 0.00 | 93 | 1020.5 |
| 20260904083004 | 64 | 50 | 2.0 | 5.0 | 0.00 | 0.00 | 0.00 | 93 | 1020.5 |
| 20260904082002 | 64 | 80 | 3.0 | 5.0 | 0.00 | 0.00 | 0.00 | 92 | 1020.6 |
| 20260904081003 | 64 | 9 | 2.0 | 3.0 | 0.00 | 0.00 | 0.00 | 92 | 1020.7 |
| 20260904080003 | 65 | 82 | 1.0 | 3.0 | 0.00 | 0.00 | 0.00 | 92 | 1020.5 |
| 20260904075003 | 65 | 114 | 2.0 | 8.0 | 0.00 | 0.00 | 0.00 | 92 | 1020.8 |
| 20260904074003 | 65 | 92 | 1.0 | 5.0 | 0.00 | 0.00 | 0.00 | 91 | 1020.6 |
| 20260904071004 | 65 | 89 | 2.0 | 5.0 | 0.00 | 0.00 | 0.00 | 90 | 1020.7 |
| 20260904070002 | 65 | 75 | 3.0 | 9.0 | 0.00 | 0.00 | 0.00 | 89 | 1021.0 |
| 20260904065004 | 65 | 88 | 2.0 | 7.0 | 0.00 | 0.00 | 0.00 | 89 | 1021.1 |
| 20260904064003 | 66 | 107 | 0.0 | 6.0 | 0.00 | 0.00 | 0.00 | 89 | 1021.0 |
| 20260904062004 | 65 | 96 | 2.0 | 7.0 | 0.00 | 0.00 | 0.00 | 90 | 1021.1 |
| 20260904061003 | 65 | 93 | 2.0 | 7.0 | 0.00 | 0.00 | 0.00 | 90 | 1021.3 |
| 20260904060002 | 65 | 51 | 3.0 | 9.0 | 0.00 | 0.00 | 0.00 | 91 | 1021.3 |
| 20260904055003 | 66 | 157 | 2.0 | 7.0 | 0.00 | 0.00 | 0.00 | 90 | 1021.2 |
| 20260904054003 | 66 | 73 | 3.0 | 6.0 | 0.00 | 0.00 | 0.00 | 90 | 1021.3 |
| 20260904053004 | 66 | 82 | 2.0 | 8.0 | 0.00 | 0.00 | 0.00 | 90 | 1021.4 |
| 20260904052003 | 66 | 113 | 2.0 | 6.0 | 0.00 | 0.00 | 0.00 | 89 | 1021.3 |
| 20260904051003 | 66 | 96 | 2.0 | 7.0 | 0.00 | 0.00 | 0.00 | 89 | 1021.5 |
| 20260904050003 | 66 | 98 | 2.0 | 5.0 | 0.00 | 0.00 | 0.00 | 91 | 1021.5 |
| 20260904045003 | 65 | 0 | 1.0 | 3.0 | 0.00 | 0.00 | 0.00 | 93 | 1021.3 |
| 20260904044002 | 65 | 123 | 0.0 | 2.0 | 0.00 | 0.00 | 0.00 | 93 | 1021.3 |
| 20260904043003 | 65 | 113 | 1.0 | 5.0 | 0.00 | 0.00 | 0.00 | 93 | 1021.4 |
| 20260904042004 | 65 | 341 | 1.0 | 5.0 | 0.00 | 0.00 | 0.00 | 92 | 1021.3 |
| 20260904041003 | 65 | 44 | 3.0 | 7.0 | 0.00 | 0.00 | 0.00 | 91 | 1021.4 |
| 20260904040003 | 66 | 347 | 0.0 | 6.0 | 0.00 | 0.00 | 0.00 | 89 | 1021.5 |
| 20260904035003 | 67 | 26 | 2.0 | 5.0 | 0.00 | 0.00 | 0.00 | 88 | 1021.4 |
| 20260904034003 | 67 | 15 | 3.0 | 6.0 | 0.00 | 0.00 | 0.00 | 88 | 1021.4 |
| 20260904033003 | 67 | 89 | 2.0 | 3.0 | 0.00 | 0.00 | 0.00 | 88 | 1021.2 |
| 20260904032003 | 67 | 7 | 2.0 | 3.0 | 0.00 | 0.00 | 0.00 | 88 | 1021.3 |
| 20260904031003 | 66 | 7 | 0.0 | 3.0 | 0.00 | 0.00 | 0.00 | 88 | 1021.2 |
| 20260904025004 | 66 | 243 | 1.0 | 5.0 | 0.00 | 0.00 | 0.00 | 90 | 1021.5 |
| 20260904024003 | 66 | 338 | 3.0 | 6.0 | 0.00 | 0.00 | 0.00 | 89 | 1021.2 |
| 20260904023003 | 66 | 356 | 3.0 | 9.0 | 0.00 | 0.00 | 0.00 | 88 | 1021.5 |
| 20260904022004 | 66 | 162 | 1.0 | 13.0 | 0.00 | 0.00 | 0.00 | 88 | 1021.4 |
| 20260904021005 | 65 | 129 | 3.0 | 20.0 | 0.00 | 0.00 | 0.00 | 89 | 1021.2 |
| 20260904020004 | 65 | 142 | 11.0 | 22.0 | 0.00 | 0.00 | 0.00 | 91 | 1021.4 |
| 20260904014003 | 64 | 141 | 11.0 | 35.0 | 0.00 | 0.00 | 0.00 | 95 | 1021.6 |
| 20260904012004 | 66 | 130 | 13.0 | 38.0 | 0.00 | 0.00 | 0.00 | 90 | 1021.3 |
| 20260904011003 | 65 | 135 | 11.0 | 29.0 | 0.00 | 0.00 | 0.00 | 91 | 1020.8 |
| 20260904010003 | 66 | 121 | 10.0 | 22.0 | 0.00 | 0.00 | 0.00 | 90 | 1020.6 |
| 20260904005005 | 67 | 147 | 9.0 | 18.0 | 0.00 | 0.00 | 0.00 | 87 | 1020.3 |
| 20260904004006 | 66 | 139 | 7.0 | 23.0 | 0.00 | 0.00 | 0.00 | 88 | 1020.1 |
| 20260904003005 | 65 | 147 | 11.0 | 31.0 | 0.00 | 0.00 | 0.00 | 89 | 1020.5 |
| 20260904002004 | 65 | 154 | 5.0 | 25.0 | 0.00 | 0.00 | 0.00 | 91 | 1020.3 |
| 20260904001003 | 68 | 164 | 8.0 | 24.0 | 0.00 | 0.00 | 0.00 | 91 | 1020.5 |
| 20260904000003 | 72 | 148 | 7.0 | 16.0 | 0.00 | 0.00 | 0.00 | 85 | 1020.3 |
| 20260903234006 | 73 | 140 | 5.0 | 12.0 | 0.00 | 0.00 | 0.00 | 81 | 1019.7 |
| 20260903233003 | 74 | 176 | 5.0 | 13.0 | 0.00 | 0.00 | 0.00 | 76 | 1019.6 |
| 20260903232003 | 74 | 156 | 6.0 | 12.0 | 0.00 | 0.00 | 0.00 | 73 | 1019.4 |
| 20260903231003 | 74 | 230 | 3.0 | 17.0 | 0.00 | 0.00 | 0.00 | 76 | 1019.3 |
| 20260903230003 | 73 | 150 | 7.0 | 12.0 | 0.00 | 0.00 | 0.00 | 80 | 1019.1 |
| 20260903225005 | 72 | 107 | 2.0 | 12.0 | 0.00 | 0.00 | 0.00 | 82 | 1019.2 |
| 20260903224004 | 72 | 158 | 7.0 | 12.0 | 0.00 | 0.00 | 0.00 | 81 | 1019.4 |
| 20260903223005 | 73 | 163 | 6.0 | 10.0 | 0.00 | 0.00 | 0.00 | 77 | 1019.3 |
| 20260903222023 | 73 | 150 | 3.0 | 12.0 | 0.00 | 0.00 | 0.00 | 77 | 1019.3 |
| 20260903221004 | 72 | 139 | 2.0 | 13.0 | 0.00 | 0.00 | 0.00 | 77 | 1019.5 |
| 20260903220003 | 72 | 144 | 4.0 | 20.0 | 0.00 | 0.00 | 0.00 | 80 | 1019.5 |
| 20260903215004 | 73 | 98 | 7.0 | 20.0 | 0.00 | 0.00 | 0.00 | 78 | 1019.9 |
| 20260903214003 | 71 | 94 | 1.0 | 8.0 | 0.00 | 0.00 | 0.00 | 71 | 1019.9 |
| 20260903213004 | 71 | 313 | 3.0 | 8.0 | 0.00 | 0.00 | 0.00 | 73 | 1019.7 |
| 20260903212003 | 71 | 294 | 3.0 | 14.0 | 0.00 | 0.00 | 0.00 | 73 | 1019.8 |
| 20260903211004 | 74 | 270 | 4.0 | 13.0 | 0.00 | 0.00 | 0.00 | 69 | 1019.9 |
| 20260903210003 | 75 | 273 | 6.0 | 21.0 | 0.00 | 0.00 | 0.00 | 68 | 1019.8 |
| 20260903205004 | 79 | 265 | 2.0 | 12.0 | 0.00 | 0.00 | 0.00 | 60 | 1019.5 |
| 20260903204004 | 79 | 121 | 3.0 | 10.0 | 0.00 | 0.00 | 0.00 | 62 | 1019.6 |
| 20260903203003 | 79 | 130 | 3.0 | 13.0 | 0.00 | 0.00 | 0.00 | 60 | 1019.5 |
| 20260903202003 | 82 | 161 | 1.0 | 7.0 | 0.00 | 0.00 | 0.00 | 56 | 1019.5 |
| 20260903201003 | 79 | 167 | 5.0 | 13.0 | 0.00 | 0.00 | 0.00 | 55 | 1019.6 |
| 20260903200003 | 81 | 201 | 5.0 | 16.0 | 0.00 | 0.00 | 0.00 | 52 | 1019.8 |
| 20260903195003 | 81 | 96 | 1.0 | 16.0 | 0.00 | 0.00 | 0.00 | 54 | 1019.9 |
| 20260903194003 | 81 | 204 | 4.0 | 13.0 | 0.00 | 0.00 | 0.00 | 52 | 1020.2 |
| 20260903193004 | 80 | 175 | 5.0 | 13.0 | 0.00 | 0.00 | 0.00 | 54 | 1020.4 |
| 20260903192003 | 78 | 177 | 5.0 | 12.0 | 0.00 | 0.00 | 0.00 | 56 | 1020.3 |
| 20260903190004 | 80 | 168 | 3.0 | 10.0 | 0.00 | 0.00 | 0.00 | 57 | 1020.5 |
| 20260903185006 | 79 | 165 | 4.0 | 10.0 | 0.00 | 0.00 | 0.00 | 56 | 1020.9 |
| 20260903184004 | 78 | 189 | 3.0 | 12.0 | 0.00 | 0.00 | 0.00 | 58 | 1021.1 |
| 20260903183004 | 79 | 165 | 2.0 | 7.0 | 0.00 | 0.00 | 0.00 | 58 | 1021.2 |
| 20260903182013 | 80 | 162 | 3.0 | 9.0 | 0.00 | 0.00 | 0.00 | 57 | 1021.4 |
| 20260903181005 | 78 | 172 | 3.0 | 9.0 | 0.00 | 0.00 | 0.00 | 59 | 1021.5 |
| 20260903180003 | 77 | 79 | 3.0 | 8.0 | 0.00 | 0.00 | 0.00 | 60 | 1021.4 |
| 20260903175003 | 77 | 278 | 2.0 | 5.0 | 0.00 | 0.00 | 0.00 | 58 | 1021.6 |
| 20260903173003 | 76 | 152 | 3.0 | 6.0 | 0.00 | 0.00 | 0.00 | 62 | 1021.8 |
| 20260903172003 | 76 | 295 | 5.0 | 6.0 | 0.00 | 0.00 | 0.00 | 61 | 1022.0 |
| 20260903171003 | 74 | 350 | 3.0 | 5.0 | 0.00 | 0.00 | 0.00 | 62 | 1022.2 |
| 20260903170004 | 74 | 55 | 2.0 | 5.0 | 0.00 | 0.00 | 0.00 | 64 | 1022.4 |
| 20260903165004 | 74 | 11 | 1.0 | 5.0 | 0.00 | 0.00 | 0.00 | 65 | 1022.3 |
| 20260903162004 | 72 | 262 | 2.0 | 6.0 | 0.00 | 0.00 | 0.00 | 71 | 1022.5 |
| 20260903161003 | 73 | 30 | 1.0 | 3.0 | 0.00 | 0.00 | 0.00 | 66 | 1022.4 |
| 20260903160003 | 72 | 90 | 1.0 | 5.0 | 0.00 | 0.00 | 0.00 | 67 | 1022.4 |
| 20260903155003 | 72 | 114 | 2.0 | 6.0 | 0.00 | 0.00 | 0.00 | 69 | 1022.5 |
| 20260903154003 | 69 | 52 | 1.0 | 6.0 | 0.00 | 0.00 | 0.00 | 73 | 1022.6 |
| 20260903153003 | 69 | 141 | 0.0 | 6.0 | 0.00 | 0.00 | 0.00 | 76 | 1022.5 |